date,time,DOY,Ta_1_1_1,Pa_1_1_1,RH_1_1_1,LWin_1_1_1,LWout_1_1_1,SWin_1_1_1,SWout_1_1_1,PPFD_1_1_1,MWS_1_1_1,WD_1_1_1,SWC_1_1_1,Ts_1_1_1
[yyyy-mm-dd],[HH:MM],[ddd.ddd],[K],[Pa],[%],[W+1m-2],[W+1m-2],[W+1m-2],[W+1m-2],[µmol+1m-2s-1],[m+1s-1],[deg],[m+3m-3],[K]
2014-07-29,00:30,210.020,286.02900000000011,94974.100000000006,89.586999999999989,-0.96466666666666656,-9999.0,1.2910000000000006,-2.5433333333333321,-4.53333333333333505E-002,2.9933333333333332,285.38900000000001,0.20999999999999999,287.18033333333335
2014-07-29,01:00,210.041,285.69333333333333,94976.100000000006,90.869666666666660,-0.69000000000000006,-9999.0,1.1673333333333327,-2.5060000000000007,-4.36666666666666800E-002,3.7933333333333339,288.99966666666666,0.20999999999999999,287.08166666666676
2014-07-29,01:30,210.062,285.76533333333339,94965.666666666672,89.440333333333328,-1.1346666666666669,-9999.0,1.2156666666666667,-2.6349999999999993,-2.76666666666666693E-002,3.8033333333333332,280.03333333333336,0.20999999999999999,286.99233333333342
2014-07-29,02:00,210.083,285.39666666666653,94968.233333333337,90.774000000000015,-1.0073333333333332,-9999.0,1.1853333333333331,-2.9083333333333332,-4.03333333333333460E-002,3.8566666666666665,279.44533333333334,0.20999999999999999,286.90733333333327
2014-07-29,02:30,210.104,285.20900000000000,94942.966666666660,90.095333333333329,-0.53966666666666674,-9999.0,1.0749999999999997,-1.8496666666666670,-4.06666666666666773E-002,3.3299999999999996,273.83333333333331,0.20999999999999999,286.81600000000003
2014-07-29,03:00,210.124,285.30566666666653,94914.566666666666,88.376333333333349,-0.96199999999999997,-9999.0,0.97166666666666635,-1.6173333333333335,-3.76666666666666747E-002,3.5566666666666671,275.12233333333336,0.20999999999999999,286.74733333333336
2014-07-29,03:30,210.145,285.09533333333337,94910.766666666663,88.289999999999992,-1.2860000000000000,-9999.0,0.94633333333333314,-2.3096666666666668,-3.66666666666666738E-002,3.8266666666666667,264.68833333333333,0.20999999999999999,286.67233333333326
2014-07-29,04:00,210.166,284.98533333333336,94933.866666666669,88.442333333333337,-1.4790000000000003,-9999.0,1.2126666666666666,-2.8203333333333327,-3.20000000000000007E-002,4.0766666666666671,267.27766666666668,0.20999999999999999,286.59499999999997
2014-07-29,04:30,210.187,284.73699999999997,94944.333333333328,89.951666666666696,-1.0493333333333332,-9999.0,1.1719999999999999,-2.2280000000000002,0.99533333333333329,4.3433333333333337,266.82166666666666,0.20999999999999999,286.51533333333339
2014-07-29,05:00,210.208,284.75466666666665,94930.866666666669,90.577666666666659,-0.72433333333333327,-9999.0,2.6430000000000002,6.7593333333333323,16.628333333333334,4.6366666666666667,269.15600000000001,0.20999999999999999,286.43733333333336
2014-07-29,05:30,210.229,284.90100000000001,94936.366666666669,90.374000000000009,-0.32066666666666671,-9999.0,12.688666666666666,55.451333333333324,76.207000000000022,4.7900000000000009,272.97766666666666,0.20999999999999999,286.38566666666679
2014-07-29,06:00,210.249,285.37100000000004,94948.733333333337,88.756999999999991,-0.63000000000000012,-9999.0,19.585000000000001,96.697333333333333,148.62466666666668,5.1166666666666663,271.68866666666668,0.20999999999999999,286.38966666666670
2014-07-29,06:30,210.270,285.74333333333340,94961.566666666666,88.612666666666655,-0.69766666666666666,-9999.0,42.009333333333331,216.71233333333331,346.17200000000008,4.8533333333333344,281.33400000000000,0.20999999999999999,286.43099999999987
2014-07-29,07:00,210.291,286.69666666666660,94981.166666666672,85.811666666666682,-1.3930000000000000,-9999.0,57.898666666666671,310.91933333333338,523.14233333333323,5.5500000000000007,292.47800000000001,0.20999999999999999,286.53366666666682
2014-07-29,07:30,210.312,286.98233333333343,95011.000000000000,86.028999999999996,-1.5566666666666662,-9999.0,34.348333333333329,205.59466666666665,408.14233333333340,5.0733333333333341,296.76666666666665,0.20999999999999999,286.68500000000000
2014-07-29,08:00,210.333,287.43533333333340,95013.966666666660,84.194666666666677,-1.4823333333333333,-9999.0,54.758333333333326,318.74200000000008,618.77033333333338,4.0266666666666673,294.10033333333337,0.20999999999999999,286.81966666666665
2014-07-29,08:30,210.354,287.93533333333340,95012.100000000006,82.204333333333338,-2.3446666666666673,-9999.0,67.700666666666649,404.95633333333330,792.87200000000007,3.8400000000000007,280.98966666666666,0.20999999999999999,286.99033333333335
2014-07-29,09:00,210.374,288.58433333333340,95009.466666666660,79.448999999999984,-2.0803333333333338,-9999.0,75.477999999999980,447.37500000000006,901.24966666666683,2.9566666666666666,299.75566666666668,0.20999999999999999,287.15666666666675
2014-07-29,09:30,210.395,289.47000000000003,94984.266666666663,74.257666666666680,-2.4563333333333333,-9999.0,104.00533333333330,623.46666666666681,1241.2526666666665,3.8333333333333339,285.23333333333335,0.20999999999999999,287.34633333333329
2014-07-29,10:00,210.416,290.05633333333333,94982.333333333328,69.772333333333336,-3.8856666666666659,-9999.0,90.807999999999993,543.37366666666662,1059.9816666666668,3.6133333333333324,295.84433333333334,0.20999999999999999,287.56900000000002
2014-07-29,10:30,210.437,290.22600000000000,94980.399999999994,67.857333333333330,-2.4293333333333336,-9999.0,77.751333333333335,452.50666666666672,899.99333333333311,4.5966666666666658,317.10100000000000,0.20999999999999999,287.73833333333340
2014-07-29,11:00,210.458,290.68333333333328,94973.366666666669,65.133333333333326,-1.4256666666666669,-9999.0,118.74733333333333,710.93333333333328,1420.4143333333334,4.2999999999999998,299.82266666666669,0.20400000000000010,287.94933333333330
2014-07-29,11:30,210.479,290.98866666666675,94953.100000000006,64.082333333333324,-2.7509999999999994,-9999.0,123.96633333333334,742.97400000000005,1496.7619999999997,3.8966666666666669,296.87799999999999,0.20000000000000009,288.20166666666671
2014-07-29,12:00,210.499,291.59133333333335,94937.199999999997,61.861666666666672,-2.6760000000000006,-9999.0,130.81466666666668,788.26966666666681,1567.2403333333334,4.3700000000000001,279.44400000000002,0.20000000000000009,288.44300000000004
2014-07-29,12:30,210.520,291.67500000000001,94928.533333333340,62.674999999999997,-4.7553333333333336,-9999.0,76.030333333333331,449.07033333333322,894.24099999999999,4.2366666666666664,290.72233333333332,0.20000000000000009,288.64566666666661
2014-07-29,13:00,210.541,291.22433333333333,94919.266666666663,65.722000000000008,-1.9113333333333338,-9999.0,71.042666666666676,411.49566666666669,855.84233333333339,4.2600000000000007,305.21166666666670,0.20000000000000009,288.65100000000001
2014-07-29,13:30,210.562,291.74433333333332,94895.366666666669,64.332000000000008,-1.2403333333333335,-9999.0,122.07233333333333,705.40733333333333,1406.9623333333332,3.9833333333333338,249.46700000000001,0.20000000000000009,288.64300000000003
2014-07-29,14:00,210.583,292.25966666666670,94856.233333333337,57.614000000000004,-1.9857142857142855,-9999.0,131.48666666666662,754.63633333333337,1522.2840000000001,4.2000000000000002,278.34399999999999,0.20000000000000009,288.80933333333343
2014-07-29,14:30,210.604,292.53833333333336,94828.266666666663,57.854666666666660,-1.7220000000000000,-9999.0,132.60633333333337,739.09166666666670,1453.5376666666666,4.9266666666666659,295.55566666666670,0.20000000000000009,288.89033333333333
2014-07-29,15:00,210.624,292.72100000000006,94835.033333333340,55.760999999999996,-3.7903333333333338,-9999.0,99.373666666666637,561.84633333333329,1138.0706666666663,4.8233333333333333,309.13366666666667,0.20000000000000009,288.99733333333336
2014-07-29,15:30,210.645,292.73766666666671,94851.366666666669,54.468999999999987,-5.6839999999999993,-9999.0,75.031999999999982,435.08699999999988,890.77100000000007,4.3666666666666663,303.76700000000000,0.20000000000000009,289.05966666666671
2014-07-29,16:00,210.666,292.47366666666670,94862.066666666666,55.181333333333335,-4.3940000000000001,-9999.0,52.349666666666664,301.04633333333339,632.51499999999999,4.7866666666666671,306.30000000000001,0.20000000000000009,289.03900000000010
2014-07-29,16:30,210.687,292.10033333333337,94859.633333333331,57.143999999999984,-3.8646666666666665,-9999.0,30.008000000000003,165.61933333333337,341.75533333333334,4.6433333333333344,307.75600000000003,0.20000000000000009,288.97866666666664
2014-07-29,17:00,210.708,291.96233333333333,94845.800000000003,59.867333333333328,-4.1943333333333328,-9999.0,44.750666666666667,238.73200000000000,473.69466666666671,3.6033333333333335,310.06666666666666,0.20000000000000009,288.88333333333338
2014-07-29,17:30,210.729,291.45666666666659,94852.899999999994,61.573666666666675,-2.8959999999999999,-9999.0,25.200666666666667,137.50799999999998,277.86333333333340,4.8366666666666678,306.17733333333331,0.20000000000000009,288.82566666666668
2014-07-29,18:00,210.749,290.93799999999999,94850.699999999997,65.943999999999988,-2.8910000000000000,-9999.0,38.728333333333325,178.04066666666668,318.10900000000004,4.7633333333333336,314.62200000000001,0.20000000000000009,288.74166666666667
2014-07-29,18:30,210.770,290.00433333333331,94849.533333333340,67.724999999999994,-2.4840000000000000,-9999.0,14.244333333333332,72.019666666666680,146.09766666666664,3.5966666666666662,309.06666666666666,0.20000000000000009,288.64666666666670
2014-07-29,19:00,210.791,289.41766666666661,94869.899999999994,69.764666666666670,-1.2286666666666666,-9999.0,4.8573333333333322,22.455666666666666,46.571999999999996,3.1233333333333326,317.69966666666664,0.20000000000000009,288.48533333333341
2014-07-29,19:30,210.812,289.04566666666665,94867.666666666672,72.300999999999988,-0.96466666666666667,-9999.0,1.8270000000000002,4.8240000000000007,12.147666666666668,2.5133333333333345,320.40033333333332,0.20000000000000009,288.34266666666667
2014-07-29,20:00,210.833,288.58466666666669,94865.699999999997,74.808333333333366,-2.2953333333333332,-9999.0,0.92966666666666653,-2.4556666666666667,1.8936666666666666,2.1199999999999997,337.15533333333332,0.20000000000000009,288.21733333333327
2014-07-29,20:30,210.854,288.03466666666668,94886.933333333334,78.318999999999988,-3.8893333333333340,-9999.0,0.91466666666666652,-4.0300000000000002,5.33333333333333402E-003,2.2266666666666670,198.68899999999999,0.20000000000000009,288.08100000000002
2014-07-29,21:00,210.874,287.49566666666669,94912.233333333337,81.347000000000008,-4.2740000000000000,-9999.0,0.92300000000000004,-3.9653333333333336,-4.46666666666666809E-002,2.3999999999999999,80.189333333333337,0.20000000000000009,287.88566666666668
2014-07-29,21:30,210.895,286.87233333333336,94936.233333333337,85.051333333333346,-3.4089999999999989,-9999.0,0.86933333333333318,-3.8473333333333328,-4.06666666666666704E-002,2.4466666666666663,224.15566666666666,0.20000000000000009,287.68333333333334
2014-07-29,22:00,210.916,286.21233333333333,94952.100000000006,88.315333333333314,-2.5510000000000002,-9999.0,1.0293333333333332,-3.9903333333333331,-4.86666666666666775E-002,2.0100000000000002,262.88900000000001,0.20000000000000009,287.49933333333331
2014-07-29,22:30,210.937,285.70600000000007,94965.466666666660,89.983666666666707,-1.8293333333333333,-9999.0,1.2520000000000002,-3.8120000000000007,-4.06666666666666704E-002,2.2133333333333334,281.77766666666668,0.20000000000000009,287.32300000000009
2014-07-29,23:00,210.958,285.55533333333335,94970.333333333328,90.484333333333367,-1.7936666666666670,-9999.0,1.4603333333333335,-3.9209999999999998,-2.30000000000000066E-002,2.7466666666666666,324.34433333333334,0.20000000000000009,287.17800000000000
2014-07-29,23:30,210.979,285.38966666666670,94973.433333333334,90.824333333333328,-2.0806666666666676,-9999.0,1.3510000000000000,-4.0606666666666662,-3.76666666666666608E-002,2.7466666666666675,340.48800000000000,0.20000000000000009,287.05133333333339
2014-07-30,00:00,211.000,285.26200000000000,94980.433333333334,92.298999999999978,-2.0179999999999998,-9999.0,1.2156666666666665,-3.7006666666666659,-5.03333333333333549E-002,2.6966666666666672,334.52233333333334,0.20000000000000009,286.94066666666657
